Home > Weather > Nuuk > Past weeks

Flag for Greenland Past Weather in Nuuk, Greenland — Yesterday and Last 2 Weeks

Now
55 °F

Scattered clouds.


Feels Like: 54 °F
Forecast: 46 / 61 °F
Wind: 7 mph from Northeast

Location: Godthaab / Nuuk

Current Time: Jul 26, 2016 at 10:29:17 AM

Latest Report: Jul 26, 2016 at 9:50 AM


Visibility: N/A

Pressure: 30.09 "Hg

Humidity: 59%

Dew Point: 41 °F

Location of NuukLocation

Past Weather in Nuuk — Graph

°F

Nuuk Temperature Yesterday

Maximum temperature yesterday: 68 °F (at 2:50 PM)
Minimum temperature yesterday: 41 °F (at 1:50 AM)
Average temperature yesterday: 53 °F

High & Low Weather Summary for the Past Weeks

 TemperatureHumidityPressure
High68 °F (Jul 25, 2:50 PM)100% (Jul 13, 12:50 AM)30.12 "Hg (Jul 13, 12:50 AM)
Low37 °F (Jul 13, 6:50 AM)40% (Jul 25, 2:50 PM)29.56 "Hg (Jul 16, 5:50 AM)
Average49 °F80%29.91 "Hg
* Reported Jul 11 8:50 AM — Jul 26 8:50 AM, Nuuk, Weather by CustomWeather, © 2016

Note: Actual official high and low records may vary slightly from our data, if they occured in-between our weather recording intervals... More about our weather records

Advertising

Nuuk Weather History for the Previous 24 Hours

Scroll right to see more
 ConditionsComfort  
Time TempWeatherWind HumidityBarometerVisibility
8:50 AM
Tue, Jul 26
52 °FScattered clouds.9 mph72%30.09 "HgN/A
7:50 AM48 °FScattered clouds.10 mph82%30.09 "HgN/A
6:50 AM46 °FScattered clouds.10 mph87%30.09 "HgN/A
5:50 AM45 °FQuite cool.9 mph93%30.09 "HgN/A
4:50 AM45 °FQuite cool.10 mph93%30.09 "HgN/A
3:50 AM45 °FQuite cool.13 mph87%30.09 "HgN/A
2:50 AM45 °FQuite cool.12 mph87%30.09 "HgN/A
1:50 AM46 °FCool.13 mph87%30.09 "HgN/A
12:50 AM46 °FCool.12 mph82%30.09 "HgN/A
11:50 PM
Mon, Jul 25
48 °FPassing clouds.9 mph76%30.12 "HgN/A
10:50 PM50 °FPassing clouds.9 mph71%30.12 "HgN/A
9:50 PM54 °FPassing clouds.9 mph58%30.12 "HgN/A
8:50 PM57 °FPassing clouds.9 mph48%30.12 "HgN/A
7:50 PM59 °FPassing clouds.14 mph48%30.12 "HgN/A
6:50 PM61 °FPassing clouds.9 mph45%30.12 "HgN/A
5:50 PM59 °FPassing clouds.16 mph48%30.12 "HgN/A
4:50 PM64 °FPassing clouds.9 mph43%30.09 "HgN/A
3:50 PM66 °FPassing clouds.9 mph43%30.09 "HgN/A
2:50 PM68 °FPassing clouds.6 mph40%30.09 "HgN/A
1:50 PM66 °FPassing clouds.6 mph43%30.09 "HgN/A
12:50 PM64 °FPassing clouds.7 mph49%30.09 "HgN/A
11:50 AM61 °FPassing clouds.6 mph52%30.09 "HgN/A
10:50 AM57 °FPassing clouds.9 mph63%30.09 "HgN/A
Weather by CustomWeather, © 2016

See weather overviewHow to use our weather pages